Location: Newark
(34.9471°N, 136.1778°E)
Time: 08:04:24
(UTC+00:00)

Envisat - Visible Passes

Search period start: 11 December 2019 00:00
Search period end: 21 December 2019 00:00
Orbit: 764 x 766 km, 98.1° (Epoch: 11 December)

Date Brightness Start Highest point End Pass type
(mag) Time Alt. Az. Time Alt. Az. Time Alt. Az.
11 Dec 3.0 08:37:06 10° SSE 08:42:02 55° ENE 08:47:00 10° N visible
11 Dec 6.0 10:18:47 10° WSW 10:21:21 14° W 10:23:55 10° WNW visible
11 Dec 5.5 20:49:56 10° NE 20:54:05 25° E 20:58:13 10° SSE visible
12 Dec 4.7 09:39:46 10° SSW 09:44:19 33° W 09:48:53 10° NNW visible
13 Dec 3.1 09:02:24 10° S 09:07:28 80° W 09:12:35 10° NNW visible
13 Dec 4.3 21:14:49 10° NNE 21:19:41 46° E 21:24:32 10° S visible
14 Dec 3.3 08:26:03 10° SE 08:30:48 43° ENE 08:35:36 10° N visible
14 Dec 5.7 10:06:32 10° SW 10:09:59 18° W 10:13:24 10° NW visible
14 Dec 5.9 20:39:07 10° NE 20:42:44 19° E 20:46:20 10° SE visible
15 Dec 4.2 09:28:11 10° S 09:33:00 43° W 09:37:50 10° NNW visible
16 Dec 2.9 08:51:09 10° SSE 08:56:12 79° ENE 09:01:18 10° N visible
16 Dec 4.8 21:03:44 10° NNE 21:08:23 35° E 21:13:00 10° SSE visible
17 Dec 3.6 08:15:05 10° SE 08:19:36 33° ENE 08:24:08 10° N visible
17 Dec 5.3 09:54:36 10° SSW 09:58:36 23° W 10:02:38 10° NW visible
17 Dec 6.0 20:28:31 10° ENE 20:31:21 15° E 20:34:11 10° SE visible
18 Dec 3.7 09:16:43 10° S 09:21:41 56° W 09:26:41 10° NNW visible
19 Dec 3.0 08:39:57 10° SSE 08:44:57 61° ENE 08:49:58 10° N visible
19 Dec 6.1 10:22:14 10° WSW 10:24:19 12° W 10:26:25 10° WNW visible
19 Dec 5.3 20:52:43 10° NE 20:57:02 27° E 21:01:19 10° SSE visible
20 Dec 3.9 08:04:14 10° SE 08:08:24 26° ENE 08:12:35 10° NNE visible
20 Dec 4.9 09:42:50 10° SSW 09:47:16 30° W 09:51:42 10° NW visible
20 Dec 6.3 20:18:31 10° ENE 20:19:58 11° E 20:21:26 10° ESE visible
